User: anonymous   Login
Location: Unspecified
(0.0000°N, 0.0000°E)
Time: 23:32:09
(UTC+00:00)
Language:

ISS - Orbit

View from above orbital plane
View from above orbital plane
View from above satellite
View from above satellite

Ground track
Ground track

The orbit data is extracted from the following two-line orbital elements,

1 25544U 98067A   15108.79023510  .00029022  00000-0  41603-3 0  9994
2 25544 051.6477 020.7631 0005679 231.9552 182.7341 15.55898270938797
Epoch (UTC): 18 April 2015 18:57:56
Eccentricity: 0.0005679
inclination: 51.6477°
perigee height: 396 km
apogee height: 403 km
right ascension of ascending node: 20.7631°
argument of perigee: 231.9552°
revolutions per day: 15.55898270
mean anomaly at epoch: 182.7341°
orbit number at epoch: 93879

The dashed part of the orbit path shows where the satellite is in the earth's shadow,  

DLR